Regional Weather Roundup
Issued by NWS

Home | Current Version | Previous Version | Text Only | Print | Product List | Glossary On
Versions: 1 2 3 4 5 6 7 8 9 10 11 12 13 14 15 16 17 18 19 20 21 22 23 24 25 26 27 28 29 30 31 32 33 34 35 36 37 38 39 40 41 42 43 44 45 46 47 48 49 50
000
ASUS43 KLMK 112110
RWRKY
KENTUCKY REGIONAL WEATHER ROUNDUP
NATIONAL WEATHER SERVICE LOUISVILLE KY
500 PM EDT FRI JUL 11 2014

NOTE "FAIR" INDICATES FEW OR NO CLOUDS BELOW 12,000 FEET
WITH NO SIGNIFICANT WEATHER AND/OR OBSTRUCTIONS TO VISIBILITY.

KYZ001>023-026-027-061>063-070>075-112200-
WESTERN AND SOUTH CENTRAL KENTUCKY

CITY           SKY/WX    TMP DP  RH WIND       PRES   REMARKS
PADUCAH        SUNNY     91  64  40 SW3       30.13F HX  92
HENDERSON      SUNNY     88  63  42 CALM      30.13F
OWENSBORO      MOSUNNY   88  63  43 VRB6      30.14F
HOPKINSVILLE   PTSUNNY   90  62  39 E5        30.14F HX  90
BOWLING GREEN  SUNNY     91  60  35 NE8       30.14F HX  90
GLASGOW        SUNNY     90  56  31 CALM      30.15F
$$

KYZ024-025-028>034-038-045-046-053-112200-
NORTH CENTRAL KENTUCKY

CITY           SKY/WX    TMP DP  RH WIND       PRES   REMARKS
LOUISVILLE/SDF PTSUNNY   89  56  32 VRB3      30.13F
LOUISVILLE/LOU SUNNY     89  56  32 VRB7      30.14F
FORT KNOX      MOSUNNY   85  61  44 N3        30.14F
$$

KYZ035>037-039>044-047>052-055>060-089>105-112200-
NORTHEAST KENTUCKY

CITY           SKY/WX    TMP DP  RH WIND       PRES   REMARKS
LEXINGTON      MOSUNNY   89  59  36 NW7       30.17F
COVINGTON      MOSUNNY   84  55  36 SW6       30.17F
FRANKFORT      SUNNY     86  59  39 SW3       30.16F
$$

KYZ054-064>069-076>088-106>120-112200-
SOUTHEAST KENTUCKY

CITY           SKY/WX    TMP DP  RH WIND       PRES   REMARKS
JACKSON        SUNNY     88  55  32 NW6       30.19F
LONDON         CLOUDY    88  56  33 N6        30.18F
SOMERSET       SUNNY     88  52  29 NW8       30.17F
MIDDLESBORO    SUNNY     88  59  37 CALM      30.17F
MONTICELLO     CLEAR     90  53  28 CALM      30.18F
$$



USA.gov is the U.S. government's official web portal to all federal, state and local government web resources and services.